RH
42 55 61 68 77 79 81 86 93 92 92 93 97 97 93 91 84 88 75 54 57 58 59 57 48 44 43 43 34 25 23 23 29 36 41 45 56 68 70 64 61 60 58 57 61 64 65 68 69 68 66 63 61 59 59 60 62 63 62 60 56 50 44 39 39 43 48 48 44 39 35 34 34 35 35 40 43 45 45 45 46 46 45 45 45 41 43 52 59 60 62 63 69 79 81 77 77
46 59 65 68 75 80 82 83 87 88 90 91 96 98 92 89 86 88 76 55 54 57 62 59 51 49 45 42 33 24 22 23 26 33 39 43 51 63 70 68 63 61 60 59 60 60 60 62 62 61 59 57 56 54 54 55 58 58 57 54 47 41 39 41 46 49 48 43 40 38 37 37 39 38 38 41 42 42 42 43 43 43 44 43 41 42 52 59 59 56 51 50 56 68 75 74 74
57 60 63 70 78 79 81 82 83 83 86 86 85 93 93 88 86 88 78 58 54 58 63 55 45 48 43 36 32 25 20 22 25 29 36 40 45 54 64 69 67 61 58 59 59 57 56 56 58 59 58 56 55 53 52 53 54 54 52 46 40 40 43 47 48 47 44 42 43 42 39 39 40 38 37 39 41 41 41 41 41 42 43 40 43 52 59 59 55 48 42 43 50 57 64 69 73
56 57 57 69 78 77 79 82 87 87 85 84 79 87 94 89 86 87 76 58 55 60 61 51 44 48 44 31 25 23 19 21 23 25 30 35 40 45 53 62 67 65 58 56 57 57 57 55 57 60 60 58 56 53 50 48 47 45 41 38 39 43 46 47 46 45 44 45 45 42 40 41 41 39 39 39 40 40 40 40 41 41 40 43 52 59 58 54 48 41 43 50 59 63 63 66 75
48 49 53 64 70 72 75 77 88 91 83 82 81 88 96 94 92 87 73 58 54 59 59 55 51 50 43 27 20 20 19 20 21 22 25 28 34 39 44 50 59 64 63 59 58 59 58 59 60 61 61 58 55 50 45 41 39 37 37 39 43 45 46 46 46 46 46 46 43 40 41 42 42 41 37 34 35 38 40 40 39 40 42 51 57 56 52 46 40 41 53 62 70 74 72 74 80
40 43 48 57 63 65 65 71 83 87 81 82 86 90 95 95 94 89 72 55 50 52 56 57 52 45 34 23 19 19 18 20 20 20 22 23 25 31 36 41 47 53 59 61 60 59 58 58 58 57 56 53 50 45 41 39 38 39 41 44 45 46 47 47 48 48 47 44 41 40 41 42 41 38 30 27 32 37 39 39 39 43 48 54 54 50 45 39 40 48 60 68 76 82 83 83 84
35 41 45 47 57 59 58 68 78 85 84 86 93 93 95 96 93 90 75 54 47 49 53 51 44 39 29 20 19 20 20 19 19 18 19 21 20 23 26 32 37 41 46 51 53 53 52 51 50 49 47 46 44 42 41 40 40 42 44 45 45 46 47 49 49 48 46 43 41 40 40 39 35 30 24 24 32 37 38 40 43 47 50 52 49 45 40 38 46 55 63 68 75 84 84 83 81
36 40 44 44 54 57 54 62 73 84 88 88 94 97 97 97 94 93 82 57 46 48 47 45 43 41 33 24 22 20 20 20 19 18 17 18 17 19 20 22 26 30 35 39 42 43 43 43 43 43 42 42 40 40 39 39 41 42 44 45 45 47 48 49 48 47 45 42 39 37 37 34 29 26 23 26 34 39 42 45 47 47 48 47 44 41 38 41 49 54 61 65 71 79 78 80 82
46 45 49 52 56 57 52 58 71 82 88 90 95 100 97 94 93 92 89 64 44 45 43 45 48 49 43 31 25 22 20 21 20 19 17 17 16 17 17 18 20 21 25 29 33 35 36 36 37 37 37 37 36 36 37 38 40 41 43 44 46 47 47 47 46 46 43 40 38 35 32 29 26 26 28 33 39 44 48 49 48 46 45 43 40 40 38 42 46 49 59 63 69 75 73 75 77
52 49 56 59 58 58 55 61 74 81 85 92 95 99 97 92 93 92 94 73 50 48 42 48 53 54 55 40 30 26 21 21 23 21 17 17 19 19 17 17 18 18 20 21 24 27 29 29 30 31 31 31 32 33 34 35 36 38 40 42 44 44 44 44 43 42 39 39 37 29 25 25 27 31 36 41 46 49 52 49 46 43 41 39 38 39 40 43 43 47 59 62 62 66 67 71 70
53 50 58 61 58 59 61 67 75 78 79 89 95 97 97 94 92 93 98 81 63 56 43 52 56 54 61 50 35 28 22 21 24 25 20 18 20 22 21 19 18 18 18 19 20 21 23 25 26 27 27 28 29 30 31 32 34 35 37 38 40 40 39 38 36 37 38 40 33 23 23 25 30 37 43 47 50 52 51 47 42 41 39 37 36 38 42 45 43 47 55 58 61 62 63 68 70
51 53 58 58 60 62 64 67 70 74 72 83 97 97 99 96 93 95 100 89 77 63 47 56 55 50 59 53 41 28 21 22 23 26 23 20 19 21 23 22 19 18 18 18 19 20 21 22 23 25 26 27 27 28 29 30 31 31 32 33 33 32 32 31 31 33 38 39 29 22 24 27 35 42 46 49 51 51 47 43 40 39 38 37 36 37 44 46 43 45 47 53 62 64 64 66 68
47 52 56 54 60 62 64 63 64 72 71 82 96 94 97 99 97 97 97 96 91 70 53 59 53 49 53 49 46 31 22 26 24 25 26 23 21 21 23 24 21 17 17 17 18 18 20 21 22 23 24 25 25 26 26 27 27 27 27 27 27 27 26 26 27 30 37 37 26 23 26 31 39 44 48 51 51 49 44 40 39 38 37 38 38 39 45 47 43 44 46 52 58 59 66 70 71
43 48 53 54 57 58 61 62 63 72 77 88 97 94 97 98 99 99 96 98 98 77 59 58 52 52 52 49 52 40 28 29 25 23 26 25 22 22 23 25 24 20 17 16 17 16 17 19 19 20 20 21 21 21 22 22 22 22 22 22 23 23 23 23 23 27 34 33 25 25 30 37 44 48 52 54 52 47 41 38 37 37 38 40 40 41 44 46 45 48 53 57 59 60 67 72 73
42 45 51 55 59 61 66 70 72 77 79 85 93 97 96 93 96 96 95 99 99 83 67 59 52 56 60 59 62 52 38 30 26 25 26 26 24 22 23 23 24 24 22 17 15 15 15 15 15 15 15 16 15 15 15 15 17 17 18 18 18 19 20 21 22 25 30 30 25 28 36 44 49 52 56 55 50 43 38 36 36 36 39 43 46 48 49 50 53 56 60 63 64 66 72 72 71
40 44 48 52 59 68 73 75 76 78 77 80 90 97 94 93 96 95 93 96 99 90 77 66 57 59 65 64 61 57 46 31 27 28 28 29 27 24 23 22 22 26 28 22 16 15 14 13 13 13 13 12 12 13 13 12 12 12 13 12 13 15 17 19 21 24 29 29 27 34 44 48 49 52 54 51 45 40 36 35 34 35 39 48 55 57 57 59 62 61 62 69 70 68 73 74 71
39 42 45 48 55 64 70 72 72 71 73 78 89 94 93 95 96 97 95 93 98 96 86 74 64 61 67 65 53 51 47 34 29 30 31 29 26 25 25 24 21 22 26 24 20 17 15 14 13 14 14 13 13 15 16 16 21 23 20 15 13 14 15 17 19 22 27 27 29 39 46 46 47 50 49 44 41 39 37 34 35 37 42 51 59 62 62 64 65 63 62 71 77 71 69 71 71
40 43 44 45 49 56 61 65 66 68 73 79 89 91 93 96 93 93 92 89 96 101 93 81 72 66 68 66 53 49 47 36 28 25 26 24 22 23 26 26 22 20 21 22 21 18 16 14 13 13 14 14 14 14 14 18 28 38 38 31 22 17 15 16 18 21 24 25 30 41 45 45 48 48 45 41 41 40 38 37 39 42 48 54 60 63 63 63 63 65 63 67 75 72 67 66 68
41 44 45 45 48 53 55 58 62 70 81 87 92 92 90 93 92 90 88 91 97 101 96 89 87 76 69 68 61 52 39 25 18 14 15 16 17 20 23 26 22 19 18 18 18 16 14 13 12 12 12 12 12 12 12 13 19 31 39 38 31 24 21 20 19 20 22 26 35 42 45 47 47 45 42 42 41 40 39 40 43 48 52 55 59 63 63 64 65 67 65 62 66 67 65 64 66
41 44 47 48 50 53 54 57 60 68 80 87 90 92 91 92 96 96 95 98 100 100 98 97 97 85 75 71 61 46 27 17 14 12 12 12 14 16 17 20 20 17 15 15 14 13 12 12 12 12 11 11 12 12 12 12 13 18 25 27 26 25 29 27 23 23 27 35 42 46 47 46 44 43 42 41 40 40 41 43 46 50 53 54 58 64 67 71 71 68 64 61 58 58 59 59 59
40 45 49 50 53 56 55 56 61 65 73 80 82 85 88 91 96 99 99 99 98 99 99 100 100 95 89 74 51 36 26 22 19 16 14 13 13 13 14 18 19 15 12 12 13 13 14 14 14 13 12 11 12 12 13 13 13 13 14 16 16 21 32 35 33 34 37 42 44 44 45 44 43 42 40 38 38 40 41 44 48 52 56 60 63 68 73 78 78 71 65 59 54 51 51 51 48
41 47 52 52 54 57 56 55 59 63 68 74 78 80 83 85 88 92 96 95 95 98 98 98 97 95 89 67 44 36 33 28 24 20 18 15 13 10 12 20 20 14 12 13 14 16 17 17 16 14 14 13 12 12 13 14 14 13 12 12 12 19 29 35 38 39 40 40 40 41 43 43 42 40 37 36 37 39 41 45 50 57 63 69 71 73 77 83 83 75 65 59 52 48 45 42 42
43 49 55 57 55 55 55 54 56 59 63 69 75 80 83 85 85 88 95 94 93 95 96 97 93 88 82 69 59 54 47 40 32 26 22 18 15 11 11 18 18 14 15 17 17 18 19 18 16 14 14 13 13 13 13 14 14 13 13 14 16 22 28 31 34 36 38 39 40 42 42 41 39 36 35 34 36 40 44 51 59 67 74 78 80 78 79 82 82 74 62 57 52 47 44 39 40
44 50 59 62 58 55 52 51 53 55 57 61 67 72 77 83 86 88 92 90 87 89 93 95 93 92 91 87 85 79 68 60 47 34 27 21 16 14 14 17 18 16 16 17 18 18 17 17 15 14 14 16 17 15 15 16 17 18 20 23 26 29 31 32 35 37 38 40 40 41 39 37 35 34 34 36 40 46 52 61 71 79 85 88 86 81 78 77 77 70 58 52 51 48 46 42 41
46 51 60 63 60 55 50 48 50 52 53 52 54 58 63 69 75 80 83 85 85 88 93 91 87 91 92 89 91 92 86 79 68 52 39 28 19 15 13 15 17 17 17 17 18 18 16 17 18 17 19 24 24 21 25 27 28 30 31 32 33 34 35 36 37 38 38 38 38 38 37 35 34 35 37 41 48 57 66 75 83 88 92 91 86 82 78 75 74 67 56 49 49 48 46 45 44
46 50 58 61 58 54 50 46 46 49 53 54 50 50 53 56 61 65 66 72 76 76 79 76 75 81 83 80 82 87 88 87 84 74 62 45 29 20 15 13 14 15 15 14 15 16 17 19 23 24 26 32 33 32 36 38 38 38 37 37 37 36 37 38 37 37 36 37 38 38 37 36 37 39 44 52 62 73 82 87 90 90 89 87 85 85 81 74 69 65 59 53 51 49 47 47 47
46 50 55 58 57 56 52 45 43 46 51 57 56 53 53 55 60 62 58 57 58 58 61 62 65 73 78 79 79 80 83 85 85 83 77 61 43 32 23 17 13 13 13 12 14 17 19 20 24 28 30 34 37 39 40 40 39 38 37 37 36 37 38 38 37 36 36 37 39 39 40 42 45 52 60 69 78 86 90 91 89 86 86 87 88 91 85 75 72 70 68 69 67 59 52 52 54
50 51 53 56 58 60 57 49 43 44 47 51 54 53 53 54 58 62 60 56 55 56 61 65 66 67 69 72 75 80 85 90 91 89 84 75 64 51 38 29 21 17 17 16 20 22 22 23 25 27 30 32 34 36 38 38 36 34 35 37 37 38 39 39 38 37 39 41 43 46 50 57 64 72 78 85 89 92 92 90 87 85 84 85 89 93 90 84 87 86 79 79 80 75 66 64 66
55 55 55 55 58 61 61 56 48 45 47 48 49 48 48 50 51 55 57 57 57 58 62 65 64 61 61 65 66 69 78 87 92 95 92 88 83 68 50 42 35 29 28 25 25 26 26 28 29 29 30 32 33 33 35 36 35 34 36 39 40 41 42 42 42 45 48 51 55 61 67 74 79 84 88 91 91 89 90 91 92 91 86 87 93 96 92 91 96 98 92 87 85 84 78 75 78
58 58 58 58 60 61 61 60 53 47 47 48 48 46 45 45 46 48 49 51 54 56 58 58 59 62 67 73 67 57 60 68 75 85 89 87 86 76 58 49 46 40 36 32 30 29 28 29 30 31 29 30 34 35 37 36 36 39 44 47 48 47 48 50 54 57 61 64 68 72 77 81 81 81 81 80 81 84 88 90 91 92 89 90 94 96 98 97 98 100 100 98 94 92 87 82 83
61 61 61 63 63 61 63 63 57 51 48 48 49 46 43 42 41 41 42 44 46 47 50 54 60 68 75 80 73 62 58 59 60 66 73 73 74 73 63 55 51 47 43 40 37 35 32 32 34 36 35 35 37 38 39 39 40 45 49 52 54 55 57 61 64 67 71 75 77 81 84 84 81 78 78 80 85 86 83 81 85 88 88 87 89 95 99 97 97 99 100 101 100 98 96 91 86
61 63 65 67 67 64 65 65 59 55 53 50 49 46 44 42 42 41 41 39 38 38 41 50 60 67 73 73 68 63 61 59 56 56 61 62 62 65 63 58 55 51 48 46 42 40 39 37 40 46 49 50 50 48 46 45 48 50 52 55 57 61 65 67 70 74 80 84 88 91 92 89 86 87 92 93 87 74 63 65 76 86 89 89 90 95 98 94 95 100 99 100 100 100 101 97 91
56 62 66 71 72 67 67 67 61 57 56 54 52 51 50 49 47 46 45 40 36 35 36 45 55 61 66 69 67 62 60 62 65 64 64 63 60 59 59 57 57 56 53 51 49 47 48 48 51 60 67 69 69 68 64 61 59 57 58 60 63 67 70 72 76 84 90 92 91 87 82 80 78 81 87 81 62 42 37 48 62 74 82 87 90 93 97 98 98 100 100 99 100 100 100 99 94
55 59 64 70 72 69 68 68 63 58 56 56 56 56 56 54 52 50 48 45 41 39 39 42 51 57 61 69 71 62 54 55 61 63 66 70 69 65 65 61 58 60 59 56 57 58 60 60 63 70 76 74 71 69 68 67 65 64 65 66 69 74 75 79 85 93 97 88 73 59 50 49 44 43 47 42 31 23 27 41 48 56 72 85 88 93 99 99 100 100 98 99 100 100 100 99 94
55 58 63 69 70 68 67 65 63 60 57 56 55 55 55 53 51 49 49 49 47 43 42 40 44 51 53 55 56 51 45 44 47 49 53 63 68 69 72 73 70 72 72 68 70 73 72 71 71 74 75 71 67 64 63 63 63 65 68 71 76 81 84 86 91 98 91 68 46 31 23 22 19 20 24 24 25 27 30 33 32 43 67 77 78 89 99 97 98 100 99 100 100 99 101 96 90
52 57 62 67 68 66 64 62 61 62 60 57 55 53 53 52 49 47 47 51 50 45 42 38 39 44 45 44 43 41 38 35 37 40 47 54 59 63 68 76 79 83 87 87 86 85 83 82 82 82 80 78 78 78 78 75 70 69 73 78 83 90 93 90 94 97 77 49 31 20 15 18 20 25 29 31 32 31 30 28 25 30 45 53 55 72 93 99 98 99 98 100 101 100 98 91 89
52 54 58 63 65 65 63 60 58 60 60 57 56 54 51 51 51 48 45 48 48 45 41 40 41 42 42 43 41 39 33 29 29 31 52 70 66 63 64 67 73 76 83 88 87 84 83 84 87 88 88 87 87 88 90 85 78 80 84 86 90 97 98 94 99 92 59 34 24 19 21 25 28 31 32 31 30 28 27 26 26 24 26 32 33 49 86 102 95 95 98 96 98 99 93 88 91
49 50 54 59 62 63 60 56 56 58 57 55 54 53 50 49 52 52 46 43 43 42 40 41 43 42 43 45 40 36 27 25 24 21 54 85 74 64 64 62 65 67 72 76 76 75 76 79 81 83 85 84 83 83 84 82 81 89 94 93 95 97 99 98 95 74 40 24 23 24 29 31 31 30 27 26 24 24 23 22 24 24 24 26 24 49 93 102 91 97 98 90 94 98 94 92 89
47 48 52 54 58 60 56 53 55 54 52 52 52 53 52 49 53 57 48 41 40 39 39 40 40 39 43 44 37 33 24 23 23 17 47 79 69 63 71 72 67 63 68 71 72 73 71 74 77 79 81 81 82 81 81 80 78 81 87 92 94 93 93 86 67 44 26 23 26 29 31 29 28 26 22 22 21 20 20 19 20 19 21 22 23 52 85 92 97 104 86 73 83 89 86 80 69
46 50 52 53 55 56 52 50 53 51 48 50 52 53 52 50 55 59 49 39 39 39 37 37 39 39 42 42 35 31 26 24 24 20 41 63 61 59 68 71 63 62 71 69 74 80 71 73 84 88 90 90 90 88 86 83 76 74 79 86 88 83 70 51 32 24 23 26 29 29 28 25 23 21 19 18 17 17 15 14 15 14 17 20 20 32 45 55 77 84 62 54 66 71 68 60 48
49 52 52 52 52 52 50 48 50 49 49 50 53 54 52 51 58 59 49 40 40 40 36 35 38 39 40 40 37 34 29 28 26 24 32 43 52 55 55 57 54 61 69 60 73 85 67 67 84 88 91 91 88 84 80 77 73 71 70 67 62 50 34 22 20 25 28 30 29 26 24 21 19 18 16 14 12 11 10 9 10 10 12 17 18 20 23 29 42 47 41 39 45 49 49 45 38
52 55 53 49 47 49 49 48 48 47 49 51 55 56 52 52 59 58 51 44 41 40 36 35 38 39 39 38 38 36 32 31 29 28 27 29 40 44 40 44 45 48 51 49 68 75 54 57 72 73 72 72 71 68 62 56 52 48 42 35 28 21 17 20 26 30 30 29 26 22 20 18 16 14 11 10 9 8 8 7 7 9 10 12 15 17 20 25 29 31 31 30 31 32 31 29 28
52 54 56 50 45 45 46 48 47 46 50 53 56 57 52 53 57 58 54 47 42 41 35 33 37 39 39 37 35 34 31 29 26 25 25 24 30 30 27 33 34 32 35 39 50 48 36 42 52 53 53 51 49 46 40 35 29 24 20 16 14 16 20 26 29 29 27 24 21 18 16 14 12 11 10 9 8 7 7 6 6 7 8 9 13 15 18 20 23 25 26 27 27 26 26 26 26
51 54 58 55 49 45 44 45 43 44 50 54 55 55 51 51 53 55 55 48 44 43 38 34 36 37 37 34 30 28 25 24 23 21 21 20 20 21 20 22 22 22 25 26 29 28 25 27 30 32 34 33 32 29 25 22 16 13 13 13 16 21 26 28 27 25 22 19 17 15 13 12 11 10 10 8 7 7 7 7 7 7 7 8 10 13 17 19 21 23 25 27 27 27 28 29 29
46 54 57 56 54 46 42 42 39 44 51 53 54 52 49 48 50 53 52 45 42 43 42 38 36 36 35 32 29 27 25 24 23 21 21 20 20 20 21 20 19 19 19 19 20 21 21 20 19 19 19 19 19 18 17 15 12 13 15 19 24 27 28 26 23 20 18 16 14 13 12 11 10 9 9 8 8 9 10 10 11 11 11 11 12 15 18 21 21 22 25 27 27 27 26 25 25
42 56 58 56 54 44 40 41 39 45 51 52 52 50 48 46 48 52 49 43 40 39 38 40 41 38 35 33 31 30 29 26 25 24 23 23 22 22 23 24 24 22 21 21 20 20 20 20 19 17 15 15 14 13 13 13 15 18 22 28 29 28 25 22 20 18 16 14 12 12 11 9 9 10 10 11 11 12 14 15 15 16 15 15 15 17 18 20 21 22 23 23 21 20 18 16 15
45 58 59 55 53 46 41 41 41 46 50 49 49 50 49 45 47 53 51 46 43 38 33 36 42 42 39 37 35 34 33 30 28 27 27 26 25 25 26 26 27 26 26 25 24 23 22 21 21 21 19 18 17 16 17 19 22 26 30 31 28 24 22 19 18 16 14 13 11 10 10 10 11 12 13 14 14 15 16 16 16 15 16 15 15 15 15 16 17 17 17 16 15 14 13 12 12
50 59 59 56 54 48 44 41 43 48 50 47 47 49 49 45 46 51 51 45 42 40 37 35 39 41 40 39 38 37 36 35 33 31 30 28 26 26 27 27 27 27 27 27 26 25 23 23 23 23 22 22 22 23 24 26 29 32 32 28 24 22 20 17 15 14 12 11 11 11 12 13 14 14 15 15 15 15 15 14 13 12 13 13 13 13 13 13 14 14 14 13 13 13 13 13 13
53 59 59 56 53 48 48 47 45 47 48 46 45 47 48 46 44 44 43 39 38 40 40 37 37 38 39 39 38 37 37 36 36 35 34 31 28 27 26 24 23 24 25 25 25 25 25 28 29 29 28 25 24 26 28 31 33 33 29 25 23 20 17 15 13 12 13 13 14 14 15 15 15 15 15 15 15 14 14 12 11 11 11 12 13 13 14 15 15 15 14 14 14 14 14 14 14
56 60 58 55 52 49 51 52 49 48 48 46 45 47 48 46 43 40 37 35 36 40 42 39 36 35 37 37 36 36 35 35 35 36 37 35 34 33 31 28 24 23 24 22 22 23 27 33 36 38 37 33 30 28 30 33 34 31 27 23 20 17 14 13 14 15 17 18 17 16 17 16 16 16 16 16 16 15 15 14 12 11 11 12 13 14 15 16 16 16 16 16 17 17 17 18 18
58 60 57 54 53 52 52 53 51 49 48 46 45 47 47 45 43 40 37 36 38 43 43 40 36 33 33 33 32 32 32 32 34 35 35 34 34 33 34 36 32 27 26 26 25 24 29 37 43 46 45 40 35 32 33 35 32 28 24 21 17 15 15 16 19 21 21 19 18 17 17 17 17 18 18 18 18 18 18 17 15 14 13 12 12 13 15 16 18 19 20 20 21 22 22 22 22
57 58 57 54 52 51 51 51 47 45 47 45 44 45 45 44 43 41 40 38 42 46 44 41 39 34 28 28 29 29 29 30 31 32 32 33 33 30 30 34 37 33 28 29 31 30 30 37 45 50 49 44 37 33 33 32 28 25 21 17 16 17 20 23 23 23 21 19 18 18 18 18 19 19 19 20 20 21 22 23 23 22 20 19 18 18 18 19 21 23 25 26 27 27 26 25 23
57 56 54 52 49 49 49 47 44 45 46 43 41 42 44 45 45 43 42 40 42 47 43 40 41 34 27 28 29 29 30 30 31 35 39 43 43 40 35 32 36 38 30 27 33 36 34 35 38 43 44 41 36 31 29 27 24 21 19 18 21 24 24 24 22 21 20 20 20 19 19 20 20 21 22 23 25 27 28 30 32 33 32 31 31 32 31 32 32 34 34 33 32 30 28 26 24
57 54 51 50 48 47 46 43 44 46 44 43 41 38 39 44 46 45 42 39 40 46 46 42 40 34 29 30 31 30 31 31 34 40 42 43 45 46 46 41 39 42 39 34 35 38 37 36 35 35 36 34 31 27 24 23 21 20 22 25 27 26 24 21 20 20 20 21 21 20 20 21 23 25 26 27 29 30 30 31 32 34 35 36 38 40 44 48 47 43 40 36 34 32 29 26 24
55 52 49 48 46 44 41 41 45 46 43 41 38 35 38 44 46 45 42 39 37 42 46 42 36 32 30 31 31 31 33 34 36 38 38 39 41 43 47 49 46 46 47 44 42 38 36 36 35 34 34 33 30 28 27 27 27 27 28 29 26 24 21 19 20 21 22 22 22 21 21 23 24 26 27 28 29 29 31 32 32 31 32 33 34 35 40 48 49 45 40 37 36 35 30 26 24
51 49 48 47 46 43 39 41 45 42 37 35 33 36 40 42 44 44 42 39 35 36 40 37 32 30 30 31 32 33 34 34 35 37 37 39 40 41 44 49 52 52 51 50 46 39 35 35 34 31 31 32 32 32 32 31 31 30 28 26 23 21 20 21 22 22 23 23 22 23 23 23 25 26 27 28 30 34 39 41 40 37 33 30 30 30 32 37 40 40 38 37 36 33 28 25 25
47 48 46 45 44 40 38 42 42 36 32 31 33 38 39 39 43 43 40 37 33 32 35 34 31 31 30 31 33 33 33 34 35 36 38 42 47 50 50 51 55 55 54 53 49 40 33 33 36 33 30 30 30 30 30 30 29 27 25 24 22 21 22 23 24 23 23 23 23 24 24 25 25 27 29 30 32 38 45 50 49 45 42 37 31 29 28 30 34 37 38 37 33 29 26 26 25
44 46 44 44 42 39 39 41 38 33 30 32 34 35 37 41 42 39 36 34 31 32 34 33 34 32 31 32 32 32 33 36 36 37 41 48 56 62 59 55 58 58 56 58 56 49 41 37 40 42 37 33 31 29 28 27 28 28 27 25 25 25 25 25 25 23 22 23 25 27 28 28 28 29 30 30 32 39 47 53 51 48 50 48 37 30 31 34 37 39 36 32 29 26 25 24 20
Wind_Speed
5 6 6 6 6 6 6 6 5 5 4 3 2 4 6 10 10 9 9 9 9 6 4 3 3 3 3 5 7 9 10 9 12 16 15 14 14 15 14 13 12 11 12 13 12 11 11 11 10 8 8 8 8 9 10 10 10 10 10 10 10 9 9 9 9 8 7 6 5 5 6 7 7 6 5 4 4 5 6 7 8 8 8 9 10 10 11 11 11 11 12 12 12 11 11 13 13
4 5 5 5 5 5 5 6 5 4 3 2 3 8 9 11 12 12 10 9 10 8 5 4 3 3 3 4 6 8 9 9 11 16 15 13 14 15 15 13 12 11 11 12 13 13 13 12 11 9 9 8 9 9 9 9 9 9 10 10 9 9 9 8 8 7 7 6 5 5 6 7 6 6 5 4 4 5 6 7 8 8 8 9 10 10 10 11 11 11 12 12 12 12 12 13 14
4 4 5 5 5 4 4 5 3 2 1 2 2 10 12 12 13 13 10 10 11 9 7 5 4 4 4 4 6 7 8 9 11 14 15 13 13 15 15 14 12 12 11 11 12 12 13 13 12 10 9 9 9 9 9 9 9 9 9 9 9 9 8 7 7 7 6 5 5 5 6 6 6 6 5 4 4 5 6 7 8 8 8 9 9 10 10 11 11 11 12 12 12 12 12 13 15
5 4 5 5 5 5 4 5 3 1 1 2 1 8 12 12 13 13 11 11 11 9 8 6 5 5 4 4 6 8 8 9 11 13 14 13 13 14 15 14 12 11 11 11 11 11 11 11 12 11 10 9 9 9 9 9 9 9 8 8 8 8 7 7 6 6 5 5 5 5 6 6 6 5 5 4 5 6 7 8 8 8 8 9 9 10 10 11 11 12 12 12 12 12 13 14 15
6 6 6 6 4 5 4 4 3 2 3 2 1 6 12 12 12 13 11 11 11 10 9 7 5 5 4 4 6 8 9 10 10 12 13 12 12 13 13 14 12 11 10 10 10 10 10 10 10 10 10 9 9 8 8 8 7 7 7 7 7 7 6 6 6 5 5 5 5 5 6 6 6 6 5 5 6 7 8 8 8 8 9 9 9 10 10 11 12 12 12 12 13 14 14 15 15
7 7 6 7 5 4 4 3 2 3 4 2 1 5 11 13 12 11 11 11 12 11 10 8 7 6 5 6 6 8 10 11 9 10 12 10 12 13 12 13 12 10 9 9 9 9 10 10 10 10 9 9 8 7 6 6 6 6 6 6 6 6 6 5 5 5 5 6 5 5 5 6 6 6 6 7 8 8 8 8 8 8 9 10 10 10 11 12 12 13 13 14 14 15 16 16 15
7 7 7 6 5 4 4 4 3 3 3 2 1 5 10 13 13 11 11 11 12 12 11 9 8 7 7 6 6 7 9 11 9 9 10 9 10 12 11 11 11 9 8 8 8 9 9 10 9 9 9 8 7 6 5 5 5 5 5 6 5 5 5 5 5 5 5 5 4 4 5 5 6 6 7 7 8 8 8 8 9 9 9 10 10 11 11 12 13 13 14 15 16 16 16 15 15
7 7 8 7 7 5 4 4 4 4 3 2 1 5 9 13 13 11 11 11 12 12 11 10 8 8 7 6 6 7 7 10 10 8 8 9 9 11 10 10 10 8 7 6 6 7 7 8 8 8 7 7 6 5 5 5 5 5 5 4 4 4 5 5 4 4 3 3 3 3 4 5 6 6 7 7 7 7 8 8 9 9 10 10 10 11 12 12 13 14 15 16 16 17 16 16 16
10 9 10 8 7 6 3 3 4 4 2 1 2 7 11 13 13 11 11 11 12 12 11 10 9 8 7 7 6 6 6 8 9 7 7 8 9 9 9 9 9 7 6 5 4 4 4 5 6 6 6 5 5 5 4 4 4 4 4 3 3 3 3 4 3 2 2 2 3 3 4 5 6 6 6 6 7 7 7 8 8 9 10 10 11 11 12 12 14 15 16 16 17 17 17 17 17
11 10 10 8 6 5 2 3 4 4 2 1 3 8 12 13 12 12 11 12 13 12 12 11 10 9 8 7 7 6 6 7 8 7 6 7 8 8 8 8 9 8 6 4 3 2 2 3 4 5 5 4 4 4 4 4 4 3 3 3 2 2 2 2 1 1 2 2 3 3 4 5 5 5 5 6 6 7 7 8 9 10 10 10 11 11 12 13 14 15 15 17 17 16 16 17 17
10 10 9 7 6 4 3 4 4 3 2 1 4 7 12 12 12 13 12 14 13 11 12 11 10 10 8 8 7 7 7 7 7 6 6 6 7 7 7 7 8 8 7 5 3 2 1 1 1 2 3 3 3 3 3 3 3 3 3 2 1 1 0 0 0 1 2 2 3 3 4 4 4 4 5 6 6 6 7 8 9 10 11 11 11 11 12 13 14 15 15 16 16 16 16 17 17
8 8 8 7 6 5 5 3 3 3 2 1 4 7 11 13 13 13 12 15 12 9 12 11 10 10 9 8 7 8 8 7 6 5 5 5 6 5 5 6 6 7 7 7 5 3 1 1 1 1 2 2 2 2 3 2 2 2 2 2 2 2 1 1 1 1 2 2 2 3 3 3 3 4 5 5 6 6 7 8 9 10 11 12 12 12 12 12 14 15 16 16 16 17 17 17 17
7 6 6 6 6 7 7 5 4 4 3 0 5 7 9 12 13 11 11 13 10 9 12 11 10 10 10 10 9 9 8 7 5 5 5 5 5 5 4 4 5 6 6 7 7 6 4 3 2 2 2 2 2 2 2 3 3 3 3 3 3 3 2 2 2 2 1 1 2 2 3 3 3 4 5 5 6 7 8 9 10 11 12 12 13 13 13 14 14 15 17 17 17 17 16 17 17
8 7 7 8 9 9 10 8 7 6 5 2 5 7 6 9 12 11 10 10 9 10 13 11 11 11 10 9 8 8 8 7 6 5 5 4 4 4 3 3 3 4 5 6 6 6 6 5 4 3 3 2 2 2 2 2 2 3 3 3 3 3 2 2 2 2 1 1 1 1 2 2 3 4 5 6 7 8 9 10 12 12 13 13 14 14 14 15 16 15 16 17 17 17 16 16 16
11 10 10 11 12 13 13 12 10 7 6 5 3 5 6 8 9 9 7 7 8 10 11 11 10 10 10 9 7 7 7 8 7 6 5 4 4 4 3 3 3 3 4 4 4 5 5 4 4 3 2 2 1 1 1 1 1 2 2 2 2 2 2 2 2 2 2 2 1 1 1 1 2 4 5 6 8 9 10 11 12 13 13 14 15 15 15 16 16 16 15 16 18 17 16 16 17
14 13 13 13 15 16 15 14 13 9 7 5 3 5 6 8 8 7 4 3 7 9 11 11 11 11 10 9 8 8 8 8 8 6 5 5 5 4 4 3 4 4 4 3 3 3 3 3 2 1 1 1 1 1 1 1 1 2 3 3 3 3 3 3 3 3 3 2 2 2 1 2 3 4 6 7 9 10 11 12 13 13 14 14 15 15 15 16 17 17 17 17 18 19 16 15 17
16 16 16 16 18 18 16 14 13 12 9 5 4 5 5 7 8 7 4 2 5 10 13 12 11 11 10 8 9 9 9 8 7 7 6 6 6 5 5 4 5 5 5 4 3 3 2 2 2 1 1 2 2 2 1 1 1 2 2 3 3 3 3 3 3 3 3 3 3 2 2 3 4 5 7 8 10 11 12 13 14 14 14 14 15 16 16 17 18 18 19 18 19 19 18 16 16
19 20 19 20 21 20 17 14 13 14 12 9 6 5 5 7 8 5 4 3 2 9 12 11 10 9 8 7 7 8 8 8 8 8 7 7 6 5 5 5 6 5 5 5 5 4 3 3 3 3 3 3 3 3 3 2 1 1 2 2 3 3 3 3 3 3 3 3 3 3 4 4 5 6 7 9 10 12 13 14 15 14 15 15 15 16 17 18 19 19 20 20 20 20 19 18 17
21 23 22 22 23 21 19 16 14 14 14 13 11 8 7 7 6 4 4 4 4 9 11 10 9 8 8 6 5 6 6 7 7 7 7 6 5 5 5 5 5 5 5 5 5 4 4 3 3 3 3 3 3 3 3 3 3 2 2 3 3 3 3 3 3 3 4 4 4 4 4 5 6 7 8 9 10 12 13 15 16 15 16 16 16 17 18 18 19 20 20 20 20 21 20 20 18
23 24 24 24 24 23 20 17 15 13 14 14 14 13 10 8 7 4 3 5 6 10 12 11 9 8 7 4 3 3 3 4 4 4 4 4 5 5 5 6 6 5 5 4 3 3 3 3 2 3 3 3 3 3 3 3 3 3 3 4 4 4 4 3 4 4 5 5 5 5 6 7 7 8 9 10 11 12 14 15 16 17 17 17 17 18 18 19 20 20 20 20 21 21 22 21 19
23 25 26 25 24 24 20 18 16 14 13 13 13 13 12 11 11 10 8 7 7 9 9 10 9 8 8 4 1 1 1 2 2 2 3 4 5 5 5 5 6 5 4 3 3 2 2 3 3 3 3 2 2 2 2 2 3 3 3 4 5 5 5 5 5 5 5 6 6 6 7 8 9 10 11 12 12 13 15 16 17 19 19 19 19 18 18 19 21 22 21 21 21 21 22 23 21
23 27 27 26 25 23 21 19 19 17 14 12 12 12 12 11 10 10 10 10 10 9 6 7 7 7 8 6 2 1 1 2 3 3 3 4 5 5 4 4 5 5 4 3 3 3 3 3 4 4 3 3 3 2 2 2 3 3 3 4 4 5 5 5 5 6 6 6 6 7 8 9 11 12 13 14 14 15 16 18 19 20 21 21 21 20 20 20 21 22 22 21 22 22 22 23 23
24 28 28 27 25 23 21 20 20 20 18 15 13 13 12 11 10 8 8 9 9 9 8 7 6 6 6 5 3 2 1 1 2 2 2 3 5 5 4 4 5 4 4 3 3 4 3 3 4 3 3 2 3 3 2 2 3 3 3 3 3 4 5 5 6 6 6 7 8 9 10 11 13 14 15 16 16 17 18 19 20 22 22 23 23 23 21 20 21 22 22 22 22 22 22 22 23
24 28 29 27 25 23 22 20 21 21 20 19 17 16 14 12 11 9 8 7 7 6 6 7 6 5 4 3 2 2 2 2 1 1 1 2 3 4 5 5 5 5 5 4 4 4 3 3 3 3 2 1 2 2 2 2 3 3 3 3 4 4 5 6 7 7 8 9 10 11 12 14 15 16 17 17 18 18 19 20 21 22 23 24 24 24 23 22 22 22 23 22 22 22 22 22 22
24 28 29 27 25 24 22 20 20 21 20 20 20 20 18 15 13 10 9 7 6 5 4 5 4 3 2 2 2 1 1 1 3 3 3 2 1 1 4 5 5 5 6 5 3 4 4 3 2 2 1 1 2 2 3 2 3 3 3 4 5 5 6 8 8 9 10 11 12 13 15 16 17 18 18 19 19 20 21 22 23 24 24 25 25 25 25 24 23 22 22 23 23 22 22 22 22
23 27 29 27 25 24 23 20 20 21 21 21 20 21 19 18 16 13 11 9 7 6 5 4 3 2 2 3 4 3 1 2 3 4 5 3 1 1 0 2 4 5 6 5 3 4 5 3 2 2 2 2 3 3 3 3 4 4 4 5 6 7 8 9 10 11 12 13 14 15 17 18 18 19 20 20 20 22 23 24 25 25 25 26 26 26 26 26 26 24 22 22 23 23 22 22 23
23 26 27 27 25 25 24 21 21 21 22 21 20 20 19 18 16 14 11 9 8 7 6 4 4 3 2 3 4 4 4 4 4 5 6 5 3 1 2 1 2 3 5 4 2 4 5 4 3 4 4 4 4 4 4 5 6 6 6 7 8 9 10 11 12 13 13 14 15 17 18 19 19 20 21 22 22 23 25 26 27 27 27 27 26 25 25 26 26 25 24 23 23 23 23 23 23
23 25 26 26 25 25 25 22 21 22 21 21 20 19 19 17 15 13 11 9 8 6 5 4 5 5 3 3 3 2 2 4 5 6 6 5 3 1 1 1 1 1 2 2 2 3 4 4 4 5 6 6 7 7 7 8 8 8 7 9 10 11 12 13 14 14 15 15 16 18 19 20 20 21 22 23 24 25 26 28 28 29 29 28 27 26 27 27 26 26 26 25 25 24 23 23 24
23 24 25 25 25 25 26 24 21 21 21 20 19 18 18 17 15 13 10 9 8 6 4 3 4 6 6 3 4 5 3 1 3 5 6 5 4 3 1 1 1 1 1 2 3 4 5 6 6 8 8 9 9 8 8 9 9 9 8 9 11 12 13 14 15 15 15 16 17 18 19 20 21 22 23 24 25 25 27 28 29 31 31 31 29 28 30 30 28 28 29 28 27 26 24 23 24
23 24 24 25 24 24 25 24 21 19 20 20 19 18 17 17 15 14 11 9 8 7 6 6 7 9 10 7 6 7 6 5 3 2 2 2 3 4 3 3 3 4 4 5 6 6 7 8 9 10 10 9 9 9 9 9 9 9 9 10 12 13 14 14 15 15 15 16 17 18 19 20 21 23 23 24 24 25 27 27 27 29 30 31 30 28 30 31 30 31 33 31 28 25 24 23 24
22 23 24 24 23 23 24 24 21 19 19 18 18 17 16 16 15 15 13 11 9 8 8 10 11 13 13 10 8 6 4 5 5 6 5 6 7 7 7 6 7 8 9 9 10 9 10 10 10 11 11 10 10 10 10 10 10 10 10 12 13 13 14 15 15 15 15 16 17 19 20 22 23 23 23 23 23 24 24 25 24 25 26 26 27 28 30 30 29 31 33 32 30 26 22 22 23
21 22 24 23 22 22 23 23 21 19 18 17 17 17 16 15 15 15 14 13 11 11 11 13 15 14 13 11 7 4 2 4 5 3 3 5 7 9 10 10 11 12 12 11 11 11 12 12 12 12 12 11 11 11 11 11 11 12 12 14 14 14 14 14 14 14 15 16 18 20 22 24 23 22 20 19 20 21 22 23 23 26 27 24 24 27 29 29 28 29 30 29 29 27 21 20 21
19 22 24 23 22 21 21 21 21 20 19 19 19 19 18 17 16 16 16 15 13 13 14 15 15 14 12 9 7 5 5 8 7 4 2 1 4 6 8 10 11 12 12 12 12 13 14 14 14 13 13 13 12 12 13 13 13 13 14 15 15 15 14 14 14 14 15 17 18 19 20 19 18 16 16 16 17 20 21 22 22 25 27 25 25 26 26 27 27 30 29 24 24 21 18 18 19
19 22 23 22 21 21 20 20 19 19 19 20 21 21 20 19 18 17 17 17 16 15 14 14 14 12 10 8 6 6 8 9 8 6 4 1 4 6 7 8 9 10 11 12 12 13 13 14 14 13 13 14 13 13 13 14 14 15 16 16 16 15 14 14 14 15 16 16 15 15 14 13 12 12 13 15 17 19 20 21 21 24 24 22 23 25 25 23 24 27 24 17 18 15 13 15 15
18 20 22 22 20 20 20 19 19 18 18 20 22 22 21 20 19 18 17 17 16 15 14 13 13 11 10 8 6 7 9 9 7 5 3 3 5 6 7 9 9 9 10 11 11 11 11 12 13 13 13 13 13 13 13 14 15 16 16 16 16 15 14 14 14 15 16 14 13 12 12 12 12 12 13 14 16 18 19 20 21 23 22 22 22 23 24 22 22 21 14 13 18 13 12 13 12
17 19 20 21 19 19 18 17 17 18 18 19 21 22 21 21 22 20 18 16 15 14 13 13 11 9 9 9 7 7 9 9 7 4 1 1 2 2 4 7 9 9 10 11 11 12 12 12 13 14 14 14 14 14 14 15 16 16 15 14 15 15 14 14 14 16 15 13 12 12 13 13 14 14 15 15 16 18 18 18 20 20 21 22 22 21 23 25 21 13 5 10 18 14 11 13 12
15 17 18 19 18 18 17 15 15 16 18 19 21 21 21 22 24 23 20 16 15 13 12 11 10 8 8 8 6 6 8 8 6 3 1 1 3 3 2 4 7 9 10 12 12 12 12 13 14 15 15 15 15 16 16 17 17 17 15 14 15 14 13 13 15 15 13 12 12 13 14 15 15 15 16 16 17 18 18 18 19 19 20 20 23 23 20 17 9 6 8 13 16 15 13 13 12
12 14 16 17 16 16 16 15 13 14 17 19 20 20 21 23 25 25 20 16 15 13 10 9 9 8 8 8 6 6 8 8 6 4 4 3 4 3 3 3 4 6 9 11 12 12 13 14 14 15 16 16 15 15 16 17 18 18 17 15 16 15 13 13 14 12 11 11 12 13 14 14 15 15 16 16 17 18 18 19 19 19 20 19 23 22 13 9 9 9 14 18 15 14 13 12 11
10 11 14 15 15 15 15 15 13 13 17 19 19 20 21 23 25 25 20 16 14 13 10 8 8 8 8 8 7 6 7 7 6 7 8 6 4 4 5 5 4 4 6 8 10 11 12 13 14 15 15 15 15 15 15 15 16 16 16 14 12 11 11 11 10 9 9 10 11 13 13 14 15 15 15 16 17 18 18 18 18 18 19 18 21 18 13 15 9 3 13 15 12 11 11 10 10
7 9 13 15 14 14 13 12 12 12 15 18 19 19 21 23 25 24 20 16 14 13 12 9 8 8 8 8 7 7 7 7 7 8 10 9 6 6 5 6 6 4 4 6 9 9 8 8 8 10 11 12 12 12 12 11 11 11 12 9 6 7 8 7 8 8 9 10 11 12 13 13 14 14 15 15 16 17 17 18 17 17 18 17 17 16 16 17 9 8 13 14 11 10 9 9 9
7 9 12 14 13 12 11 10 10 11 13 17 19 18 20 22 23 22 20 17 14 13 12 10 8 8 8 8 7 7 7 7 8 10 11 9 7 6 5 4 5 5 4 6 8 7 6 4 3 4 7 7 7 7 7 6 6 6 6 5 4 5 5 6 8 9 10 11 11 12 12 13 14 14 15 15 15 16 16 17 17 17 18 17 16 15 15 15 10 9 13 12 11 11 10 11 11
9 8 8 11 12 12 10 8 9 11 13 15 18 18 18 20 21 21 20 18 16 14 12 11 9 9 8 8 8 7 8 8 9 10 10 9 8 8 7 6 6 6 5 5 6 5 5 4 3 3 4 4 4 5 4 3 3 3 4 4 5 5 7 8 9 10 11 11 12 13 13 14 15 15 15 16 16 16 17 17 18 17 17 17 16 16 15 15 14 13 13 13 13 12 12 12 12
9 7 6 7 8 9 8 6 7 10 12 15 17 16 17 19 19 20 19 17 16 15 13 12 10 10 9 9 9 8 8 9 10 11 11 10 9 9 10 9 8 7 6 6 6 6 6 5 4 3 3 3 3 4 3 3 3 4 5 6 7 8 9 10 10 11 12 12 13 14 15 15 16 16 16 17 17 18 18 18 18 18 17 17 17 17 16 16 15 15 15 14 14 13 13 13 13
9 7 5 4 3 5 5 4 6 9 12 15 16 15 16 18 18 20 18 15 15 14 13 12 11 10 9 9 10 10 10 11 12 13 14 14 13 12 12 12 11 10 10 10 9 9 8 7 5 4 3 4 4 4 5 6 6 7 8 9 10 10 10 10 11 11 12 13 14 15 15 16 17 17 18 18 19 19 18 18 17 17 17 16 16 16 16 16 16 16 15 15 14 14 14 13 13
11 8 5 3 2 2 2 2 5 8 11 14 15 14 15 17 18 19 17 14 14 13 13 12 11 11 10 11 11 11 12 12 13 14 15 16 16 16 16 15 14 14 13 13 12 12 11 10 9 7 7 7 7 7 8 8 9 10 10 10 10 10 10 11 12 13 13 14 15 16 16 17 17 18 18 19 19 19 18 17 17 17 17 16 15 15 15 15 16 16 16 15 15 15 14 14 14
11 9 6 4 3 3 2 2 6 9 10 12 14 13 15 17 17 17 17 15 15 14 14 13 13 13 13 12 12 12 12 12 12 13 14 15 15 16 16 16 16 16 15 14 14 13 12 12 11 11 10 10 10 10 10 10 10 10 10 10 10 10 11 12 13 14 15 15 16 17 17 17 17 17 17 18 18 18 18 18 17 17 17 16 16 15 15 15 15 15 15 15 14 14 14 14 13
10 10 9 7 5 3 2 2 6 9 9 11 12 12 14 16 16 16 16 16 17 16 16 16 16 17 16 13 12 11 11 11 11 11 12 13 14 14 15 15 16 16 16 17 16 16 16 15 14 13 12 12 11 11 11 10 10 10 10 10 11 11 11 12 13 14 15 16 17 17 17 16 16 17 17 17 18 18 18 18 17 17 17 16 16 15 15 14 14 14 14 14 14 14 14 14 14
12 12 12 10 8 6 1 3 5 7 8 10 10 10 12 14 15 15 15 17 19 19 17 17 18 18 17 14 12 11 11 11 11 11 12 13 14 14 15 15 16 16 17 18 19 19 20 19 18 16 15 14 13 12 12 11 10 10 10 11 11 12 12 13 14 15 16 16 17 17 16 16 16 17 17 17 17 17 17 17 17 17 17 17 16 15 15 14 14 14 14 14 14 14 14 14 15
14 14 14 13 10 6 0 4 3 5 7 8 9 9 10 13 13 14 16 17 20 21 18 16 16 15 14 13 13 12 13 13 14 14 14 15 15 15 15 15 16 16 17 18 20 20 21 21 21 19 17 16 14 13 12 11 11 11 11 11 12 13 14 14 15 16 16 17 17 17 17 17 17 17 17 16 16 16 16 17 17 17 17 16 16 15 14 14 14 14 15 15 15 15 16 17 17
15 15 15 14 9 4 1 2 2 2 3 6 8 8 9 11 11 13 17 19 21 21 17 14 14 13 11 11 13 14 14 15 15 15 15 14 15 15 15 15 15 16 17 18 19 20 20 21 20 19 18 16 15 13 12 11 10 11 11 12 13 14 15 15 16 17 17 17 17 17 17 17 17 17 16 16 16 16 17 17 17 16 16 16 15 15 14 15 15 16 17 17 18 18 19 20 20
16 15 14 12 8 5 3 1 1 1 1 4 6 6 7 9 11 13 17 20 22 21 17 14 13 11 10 11 12 13 14 14 15 15 15 16 17 18 17 16 15 15 16 17 19 19 19 19 18 17 16 16 14 13 11 10 10 10 12 13 13 14 15 16 17 17 17 17 18 18 18 17 17 17 17 16 16 16 17 17 17 17 17 17 16 16 16 17 17 18 19 20 20 21 21 21 22
17 16 13 11 10 8 6 4 3 1 1 3 5 4 6 8 10 12 16 20 22 21 16 14 13 12 10 10 10 12 14 15 16 18 19 21 21 21 20 18 16 14 13 13 16 18 19 19 17 15 14 14 14 13 12 11 11 11 12 13 13 14 15 16 16 16 17 17 17 18 17 17 17 17 17 18 17 17 17 17 17 18 18 18 18 18 18 19 19 20 20 20 20 20 21 21 21
20 17 14 12 11 7 7 6 3 1 2 2 4 4 6 8 10 11 16 20 21 20 15 13 13 12 10 9 10 14 15 16 19 21 23 23 23 21 19 17 16 14 12 11 12 14 18 19 18 16 14 13 13 13 12 12 12 12 13 13 14 14 15 15 15 15 16 16 17 17 17 17 17 17 18 19 19 18 18 18 18 19 19 19 19 19 19 19 19 20 19 19 19 20 20 20 21
20 18 16 14 12 9 8 7 2 1 1 1 3 5 7 8 9 10 16 19 20 19 14 11 12 11 10 10 12 14 16 17 21 23 23 22 22 21 19 16 15 13 12 12 10 11 14 17 18 18 16 14 13 13 14 14 14 14 14 15 15 15 15 15 14 15 15 16 17 17 17 18 18 18 18 19 20 20 20 20 20 20 20 19 19 19 18 18 19 18 18 18 19 19 20 20 21
20 20 19 16 13 10 9 7 4 2 1 1 3 5 6 7 7 9 15 17 19 20 16 12 11 10 10 11 12 14 16 19 21 20 20 21 21 21 19 16 13 11 11 12 11 9 11 14 18 19 18 16 15 14 15 15 15 16 16 16 16 16 15 14 15 15 16 16 17 17 17 18 19 19 19 20 21 21 22 22 22 21 21 20 19 18 18 17 18 18 19 19 20 20 20 20 21
22 22 21 18 14 10 9 9 7 5 3 2 4 5 4 4 6 9 13 15 18 20 17 12 10 9 10 12 13 15 18 20 19 18 19 20 20 19 18 16 12 10 9 10 11 9 10 13 16 19 19 18 17 16 16 16 16 16 16 16 16 16 15 15 15 16 16 16 17 17 18 18 19 19 20 20 21 23 23 23 23 22 22 21 20 19 18 18 18 19 20 21 21 20 20 20 21
23 22 19 19 18 12 10 9 7 6 4 4 6 5 3 4 7 10 12 15 18 18 17 14 11 10 11 12 14 17 19 19 17 17 19 21 21 19 17 15 12 11 10 10 11 10 10 11 14 17 18 18 17 16 16 16 16 16 16 16 16 16 16 16 16 17 17 17 18 18 19 19 19 19 20 21 22 23 24 25 24 23 22 21 20 19 19 18 18 19 20 21 21 21 21 21 22
25 22 18 18 18 15 13 11 8 8 6 7 7 6 4 4 7 10 12 15 17 17 17 15 12 11 12 13 16 19 19 17 16 17 19 21 22 22 19 14 10 10 11 12 13 13 13 13 13 14 16 17 17 16 16 15 15 15 16 16 16 16 16 17 17 18 18 19 19 19 19 19 19 19 20 21 22 23 24 26 25 23 21 20 18 18 18 18 18 18 19 20 20 20 21 21 22
Wind_Direction
355 7 9 12 15 22 19 23 25 11 5 333 258 199 173 164 160 157 151 139 140 141 130 82 66 82 61 61 71 78 76 72 77 79 74 71 77 81 83 87 95 106 111 112 115 116 114 114 113 112 111 109 106 104 104 105 107 105 103 101 101 100 96 94 94 95 95 96 101 99 91 86 82 78 67 55 45 44 44 42 40 30 26 23 20 16 13 10 5 2 358 355 350 349 348 348 352
360 11 12 14 10 24 26 23 21 3 357 319 223 185 176 170 165 160 156 143 142 142 136 115 103 104 76 72 76 83 84 78 79 83 80 74 78 84 88 91 97 105 111 112 114 116 116 116 115 113 109 104 101 102 105 108 108 107 106 106 106 102 98 97 97 97 97 99 98 89 84 80 77 71 58 44 35 34 34 34 31 23 22 21 18 15 11 6 2 0 356 354 350 349 345 345 349
357 9 10 19 15 17 24 20 16 347 352 330 212 181 181 175 168 163 159 142 141 147 143 136 117 100 87 92 92 87 86 83 82 86 86 81 80 83 88 91 96 105 113 114 114 116 118 119 119 117 114 110 108 108 110 111 111 112 112 112 110 106 102 101 100 99 98 96 90 81 75 71 65 59 46 32 26 25 27 27 22 18 19 20 18 13 7 1 359 357 354 352 352 351 346 347 348
2 9 5 14 17 10 12 14 21 49 39 359 87 176 180 174 169 165 157 141 142 152 149 139 115 98 97 111 108 100 92 85 84 89 91 88 85 85 88 90 92 101 112 116 117 118 119 120 120 120 117 113 112 111 111 111 113 114 113 113 109 105 102 100 99 96 94 88 77 68 62 58 53 46 34 23 21 23 23 22 18 15 18 19 16 9 0 357 355 354 353 351 353 354 351 351 349
357 4 358 357 6 12 12 6 29 47 24 7 85 167 176 172 170 165 151 141 145 153 149 138 124 112 119 135 122 114 103 89 82 88 93 93 92 89 90 92 91 96 105 111 115 118 119 118 117 117 115 113 112 110 108 109 110 111 110 106 101 99 99 97 94 90 84 73 63 56 52 49 44 36 27 22 23 25 25 19 16 13 15 16 10 3 356 353 352 352 352 351 355 358 356 353 349
344 354 351 347 355 8 11 358 16 29 33 39 139 161 170 172 170 166 153 145 148 150 148 143 143 136 135 143 131 118 105 92 84 86 93 95 94 93 93 95 94 95 101 106 111 114 116 117 116 116 115 113 112 111 108 108 107 106 102 97 93 93 94 91 87 81 71 63 56 49 46 44 39 29 24 25 29 30 25 18 15 12 12 10 3 357 352 350 350 352 353 354 357 357 355 351 347
340 347 348 347 355 354 4 3 18 31 47 60 146 154 170 172 165 168 163 152 150 150 150 151 149 138 131 135 126 113 105 97 91 85 92 95 92 94 94 95 96 97 99 105 111 114 116 116 117 117 117 117 117 115 110 106 103 99 95 92 95 98 98 93 85 76 67 61 54 47 43 39 36 29 27 30 33 31 22 17 12 8 6 3 356 352 349 348 350 353 356 356 358 358 353 346 347
356 351 353 354 353 342 347 357 19 38 52 60 127 165 178 173 165 170 170 159 154 155 155 151 142 132 124 121 118 114 111 104 99 93 95 97 92 94 95 93 93 94 97 101 107 112 116 116 117 117 119 121 122 119 113 107 100 97 97 102 110 112 108 98 86 78 71 64 50 41 37 36 34 31 31 34 34 28 20 14 7 2 359 355 350 348 346 348 351 354 355 354 357 358 350 341 347
8 2 360 355 345 331 333 3 23 42 73 82 143 167 171 168 170 173 174 169 160 159 156 147 138 130 124 118 119 122 122 113 106 104 103 101 98 97 97 95 91 85 82 85 93 102 113 118 120 122 123 124 125 123 119 114 111 112 115 120 121 114 103 92 87 83 74 57 38 33 37 35 34 34 34 34 30 23 17 9 1 355 352 348 344 344 345 349 353 354 354 351 354 355 345 339 347
8 3 2 354 335 329 9 47 39 53 83 98 130 155 164 164 172 172 179 180 167 164 158 147 142 136 129 122 121 129 131 121 112 110 111 110 106 104 103 102 101 93 79 67 65 71 93 114 123 128 129 132 134 134 134 134 135 135 132 127 116 98 87 82 78 59 51 39 27 32 38 38 39 38 34 30 24 16 10 0 353 349 344 341 339 341 344 350 355 356 352 348 351 350 341 339 346
8 359 0 357 338 348 37 61 54 59 61 107 132 147 165 167 173 175 184 186 175 166 155 149 150 145 138 129 127 135 138 129 120 119 123 121 116 112 109 108 110 109 105 95 78 61 47 71 115 133 137 142 149 151 153 156 155 150 145 143 148 166 176 227 325 5 18 16 18 33 40 43 42 36 29 24 16 7 359 350 345 341 336 335 337 340 344 350 354 354 348 345 346 345 341 339 343
19 3 355 358 357 18 39 49 48 41 32 140 151 150 170 173 171 177 188 186 182 166 150 154 157 148 142 136 134 142 143 134 128 133 136 134 126 120 118 117 118 120 123 123 122 121 121 140 164 179 165 166 175 175 177 179 179 178 179 187 205 224 231 255 287 325 348 351 4 29 37 42 38 27 21 12 3 355 346 341 339 334 331 332 336 338 341 345 351 351 343 342 342 341 342 339 340
35 23 6 15 25 40 43 36 32 31 27 163 171 159 172 173 165 172 189 185 189 173 153 159 158 148 148 145 143 149 148 139 142 153 148 145 135 127 128 131 132 133 135 137 141 144 152 161 170 185 186 202 211 213 213 212 214 212 214 216 223 231 236 250 273 293 315 322 347 14 27 34 26 16 9 358 350 342 337 336 334 330 330 333 334 336 339 340 346 348 341 339 339 339 340 339 337
48 44 36 44 45 48 46 38 34 32 31 53 157 149 152 153 152 166 183 184 194 181 161 165 160 149 149 145 145 149 149 148 156 168 161 157 148 141 146 156 157 153 151 150 153 155 159 165 170 175 175 193 214 229 233 238 243 243 242 244 243 243 247 256 267 271 264 269 317 353 12 21 12 1 353 346 341 335 333 334 331 329 332 333 333 336 337 338 341 343 340 336 334 333 335 336 334
53 50 48 55 55 53 48 45 41 33 33 42 112 127 129 131 146 165 173 182 195 188 172 174 164 151 148 143 150 152 155 160 162 168 171 168 165 161 171 187 190 185 177 166 169 167 166 170 174 174 171 183 215 246 272 294 296 298 299 302 296 285 272 264 259 247 235 236 255 280 318 1 353 343 339 338 335 331 331 330 328 329 332 331 331 333 333 335 336 337 337 334 328 327 331 332 330
55 53 51 56 60 57 51 49 47 40 43 46 80 104 119 127 146 152 136 177 207 205 187 181 172 159 154 155 164 161 166 169 162 164 176 180 176 176 189 210 221 219 209 200 198 192 188 189 187 190 192 215 252 289 322 340 346 346 342 338 330 316 294 274 259 245 241 242 246 255 283 326 331 332 334 333 330 328 327 325 324 326 328 328 327 326 328 330 331 332 332 330 324 322 327 326 323
59 55 52 55 58 56 51 49 48 44 48 56 75 93 113 125 135 138 127 154 226 215 192 182 179 165 157 167 174 166 168 170 161 167 181 189 186 183 191 208 230 240 240 238 233 231 238 239 244 254 264 265 265 275 282 315 342 346 339 331 325 312 298 282 267 256 250 254 261 275 294 316 325 327 327 325 324 323 321 320 319 322 324 323 321 320 324 326 326 326 324 322 320 318 320 319 317
61 57 52 53 55 54 50 47 48 47 51 60 74 92 113 123 127 136 152 137 224 216 191 177 182 178 166 169 172 165 168 169 168 176 182 188 190 193 196 202 219 237 252 261 263 260 261 260 259 257 258 259 258 262 260 258 278 308 308 308 305 294 284 269 261 255 252 259 264 274 291 309 318 317 317 319 320 318 316 315 315 317 318 318 318 317 321 322 321 321 320 319 318 315 315 315 317
62 59 54 52 53 51 49 48 51 56 61 66 73 81 97 125 137 148 172 166 194 192 176 171 183 189 181 171 158 160 171 172 173 177 178 185 194 203 208 209 215 226 242 257 270 277 274 264 256 247 246 248 250 254 259 261 258 257 268 281 287 283 276 260 249 245 242 247 255 269 286 299 305 306 308 312 313 311 310 310 310 311 311 313 313 314 317 317 316 317 318 318 316 314 313 314 316
63 61 56 53 53 52 51 50 53 63 72 74 73 77 86 107 111 104 163 184 175 163 160 167 179 185 187 179 143 151 171 168 170 175 176 189 201 211 217 219 217 219 229 236 248 265 269 266 260 250 243 244 249 254 257 264 265 259 260 268 270 267 261 250 242 241 242 250 265 279 289 296 299 301 302 303 303 302 303 304 304 306 306 309 311 313 316 315 315 316 318 317 316 315 314 315 316
65 62 58 54 54 54 55 55 56 61 73 79 76 76 79 84 84 80 98 123 127 134 154 172 178 181 177 161 121 139 144 135 152 188 216 223 219 218 217 217 214 209 210 220 229 240 256 266 267 261 255 254 258 260 258 260 261 260 262 262 258 255 248 243 245 248 256 266 277 286 291 295 297 297 296 295 295 295 297 299 300 302 304 308 312 315 316 314 314 315 317 317 316 316 315 314 316
66 63 58 55 53 54 56 60 62 60 66 75 77 76 72 69 71 73 82 92 96 99 119 154 164 164 156 143 138 191 127 122 144 171 222 245 245 237 219 202 202 195 186 210 238 250 258 262 260 257 256 260 258 247 241 246 246 246 255 256 251 249 246 245 250 256 266 276 282 285 287 289 290 290 290 290 290 292 295 298 300 302 305 308 310 311 312 311 311 312 315 316 315 315 314 314 315
66 64 58 54 53 52 55 61 65 65 64 69 73 75 74 68 63 66 74 77 84 91 99 113 122 127 133 139 161 219 231 153 148 146 176 221 239 244 236 209 197 188 185 207 243 257 263 259 252 248 246 254 257 240 219 225 224 218 232 238 235 237 245 249 255 260 266 273 277 279 280 282 283 284 285 287 290 293 296 299 300 302 304 305 306 307 308 309 310 312 313 313 312 312 312 312 314
66 67 60 53 52 50 52 59 66 69 68 69 72 71 72 71 67 72 79 79 88 95 103 106 102 101 116 144 178 221 234 254 269 245 194 203 211 214 218 214 202 201 205 207 231 258 258 249 245 237 228 227 232 206 184 200 195 190 199 211 219 227 242 251 256 262 266 271 274 276 278 280 282 284 286 289 293 297 299 300 300 301 303 303 303 305 307 309 310 310 310 310 310 310 310 311 312
66 68 62 54 51 49 50 56 62 67 70 71 73 72 71 71 69 74 79 80 85 83 98 108 102 107 141 184 217 231 198 246 273 272 265 257 277 214 205 212 213 219 229 221 227 258 258 243 236 224 195 159 183 172 160 185 194 197 204 217 234 241 250 256 260 265 270 275 278 281 283 284 286 289 291 295 298 300 301 301 301 301 300 299 300 304 307 308 308 307 307 307 307 307 308 309 310
65 67 63 55 52 50 48 53 58 60 65 68 71 73 72 71 69 69 73 76 77 74 82 90 91 137 189 216 236 258 241 242 264 272 268 257 269 321 86 214 226 231 244 241 228 249 256 247 223 212 200 183 199 199 194 218 232 239 243 249 257 258 260 264 269 274 278 282 285 286 287 289 292 294 297 299 301 301 300 299 297 295 295 295 298 301 304 307 307 306 305 305 305 305 307 307 307
64 65 63 58 53 51 48 50 55 57 59 62 64 66 67 67 66 64 67 72 77 77 76 70 76 107 153 190 212 238 251 255 257 261 259 243 224 204 70 85 218 230 248 251 223 228 242 246 235 221 216 216 219 225 231 241 249 254 260 265 267 269 270 274 278 281 283 286 286 288 290 293 296 297 299 300 301 300 298 296 294 295 296 296 296 295 299 305 306 305 302 300 301 301 302 303 303
64 63 63 61 56 52 48 46 51 55 56 58 58 60 60 60 59 58 55 56 65 74 79 78 73 76 92 134 158 179 251 267 257 250 250 247 247 254 74 101 216 233 249 241 204 210 223 233 245 239 231 232 233 235 240 247 252 256 260 264 268 272 275 279 283 285 287 289 290 293 295 297 299 299 300 300 300 299 297 297 297 298 296 294 295 293 294 299 301 301 299 294 292 293 294 296 298
64 61 62 64 60 54 48 43 45 52 55 56 55 55 56 55 54 52 44 37 40 45 46 47 40 31 31 59 94 90 94 164 235 244 256 269 278 283 308 332 315 303 258 232 213 209 216 220 233 241 240 240 244 247 249 252 258 264 267 270 275 278 279 282 285 289 292 293 293 294 296 297 298 297 297 296 296 296 296 297 297 296 294 292 294 293 293 294 292 294 297 295 290 286 287 290 293
64 60 62 64 61 56 50 42 41 48 53 55 54 51 53 53 52 49 42 32 28 26 19 12 13 12 16 37 77 86 102 121 131 162 216 258 262 260 268 285 284 271 262 254 244 233 232 234 236 243 247 250 255 258 259 263 267 272 276 278 281 281 282 283 286 290 293 293 293 294 295 296 295 294 294 295 297 299 301 302 300 298 297 296 296 295 293 288 284 288 294 296 296 288 283 285 289
67 61 62 64 62 58 52 44 41 45 48 51 50 48 49 49 48 45 39 32 27 26 25 25 28 27 33 57 82 87 106 113 108 125 157 186 199 207 216 230 244 249 247 247 249 249 250 252 252 255 258 258 258 260 261 264 268 272 275 275 275 275 278 282 286 291 294 297 299 300 301 299 298 299 302 304 307 309 309 310 309 307 303 302 301 294 289 285 284 288 291 295 296 290 283 280 285
74 67 64 65 63 60 54 46 44 46 44 45 48 46 44 42 41 38 32 27 25 26 32 35 36 40 51 70 78 72 77 68 70 104 157 188 196 200 209 224 237 245 249 252 257 262 265 267 267 267 267 265 262 263 263 264 268 271 273 273 274 275 277 281 287 294 299 303 304 303 301 299 301 303 304 307 309 310 310 310 309 304 297 295 295 287 282 286 288 286 288 298 300 288 279 278 283
79 76 72 69 65 63 58 50 46 48 47 46 48 48 42 36 32 29 26 21 18 22 31 38 41 45 55 61 50 36 44 46 47 56 60 219 211 210 217 230 243 252 258 262 264 267 269 272 274 271 271 270 267 267 268 269 269 270 270 271 273 276 279 284 290 299 304 305 302 299 298 298 302 302 301 306 309 310 313 315 312 307 303 301 301 296 290 287 285 283 283 294 308 297 275 275 281
79 80 80 76 69 64 61 54 46 46 49 49 48 47 41 33 26 22 20 16 12 14 24 37 44 45 51 52 34 29 46 51 52 61 65 133 193 210 222 227 237 246 253 256 257 262 267 271 272 270 269 271 272 272 271 270 269 267 267 268 271 275 282 287 292 298 301 300 298 299 302 305 309 311 312 316 316 315 319 324 323 320 320 317 313 312 307 294 284 288 287 292 315 305 276 280 285
80 81 84 82 75 67 62 55 45 40 44 47 45 43 39 33 26 20 16 12 7 6 14 30 40 42 48 47 32 32 49 56 57 60 69 127 172 200 219 218 220 228 236 243 249 257 264 268 268 266 265 269 274 275 272 269 266 265 266 268 271 274 280 286 290 295 297 298 300 305 310 315 319 322 323 322 318 319 323 328 329 328 328 326 324 317 310 304 290 287 295 310 319 306 280 291 294
84 84 86 86 81 73 63 54 48 40 36 39 39 37 37 35 28 20 16 11 5 2 7 20 30 36 44 43 31 32 46 56 55 49 74 139 165 208 223 217 219 225 229 235 245 255 258 258 259 259 260 262 265 267 267 267 267 269 270 272 273 274 280 286 287 290 294 299 303 308 314 319 322 322 322 320 318 321 325 329 332 334 333 332 333 322 308 306 295 280 289 310 308 301 290 294 295
91 90 90 90 86 80 67 53 50 44 36 33 34 36 37 36 29 21 15 11 5 2 4 16 27 31 40 44 34 32 43 53 52 34 328 321 359 351 278 232 229 232 233 235 241 248 251 252 253 253 255 257 260 260 262 267 273 274 271 270 274 278 282 281 280 283 290 299 304 311 316 318 319 319 319 321 322 324 327 331 335 337 338 338 336 332 319 313 335 15 338 313 305 299 293 293 294
102 99 95 93 91 85 72 59 52 47 39 31 32 36 34 32 27 19 14 10 6 5 5 18 34 35 41 50 45 42 42 47 46 18 353 345 353 339 290 264 255 250 247 249 251 255 257 258 256 255 255 258 263 263 265 272 277 275 269 268 273 274 271 269 272 278 289 300 305 309 312 313 316 319 321 324 326 327 329 334 338 338 339 342 340 342 339 334 40 43 315 307 313 302 293 296 301
115 106 96 93 92 86 76 68 60 47 37 30 29 30 27 24 22 17 12 9 4 4 5 17 39 42 47 57 55 52 44 38 32 16 22 28 3 335 313 305 310 298 277 272 271 270 271 270 267 265 263 266 271 273 275 278 278 276 277 279 273 263 259 263 271 281 292 301 305 306 309 314 318 322 325 327 327 327 330 332 335 336 338 343 344 348 353 339 342 320 304 314 321 308 305 312 311
127 108 98 96 95 90 79 73 64 46 34 30 27 23 20 19 19 16 13 10 3 1 2 11 36 43 48 57 54 51 40 27 17 15 33 36 8 1 351 330 334 337 314 303 291 282 284 282 270 266 264 265 273 278 276 276 275 274 278 281 265 251 257 266 280 294 302 307 308 311 315 319 322 324 325 325 324 324 327 328 329 334 335 339 342 340 347 346 319 274 309 323 319 318 323 320 312
128 108 105 105 104 98 87 77 65 46 34 32 27 20 17 16 20 20 14 10 4 1 1 8 31 39 40 46 45 42 31 17 8 8 29 33 6 12 28 5 357 6 359 331 311 300 304 301 272 259 261 263 274 278 270 267 272 272 271 274 267 265 277 292 303 309 312 314 316 320 322 323 323 324 323 321 321 321 322 325 326 329 330 330 336 334 335 343 332 304 313 319 321 325 321 313 310
130 118 116 112 109 104 90 73 59 43 34 34 30 21 15 16 21 22 16 10 5 3 3 9 26 34 32 34 33 30 22 14 6 1 15 26 9 2 12 17 14 13 3 333 327 343 344 332 327 310 295 288 281 275 273 275 279 284 287 292 296 302 310 314 315 316 318 322 326 326 325 324 322 321 321 319 320 321 321 323 322 321 323 322 326 332 332 331 329 323 321 322 324 322 316 314 312
147 141 130 111 104 102 90 66 47 38 35 35 31 22 15 16 19 20 16 9 3 2 3 9 23 29 27 26 25 23 21 16 10 2 4 12 11 3 2 5 7 5 349 330 343 5 9 4 0 345 324 303 278 279 301 313 313 312 312 314 316 318 321 319 319 322 326 329 327 325 323 321 320 319 320 320 320 321 322 321 320 317 318 321 323 326 328 328 327 326 326 326 324 321 319 317 316
167 157 143 126 102 97 93 64 39 37 37 36 31 21 13 13 15 17 17 11 3 358 357 4 17 25 24 23 23 19 18 16 12 6 1 2 3 2 1 0 359 355 351 348 350 354 357 357 353 341 323 304 299 314 328 326 323 322 322 323 323 322 322 322 325 328 329 327 323 321 321 320 320 321 321 322 322 324 325 325 326 325 324 324 324 322 323 326 327 327 327 328 327 327 326 325 325
179 166 165 175 176 140 116 59 47 47 39 34 30 19 12 11 12 16 19 14 3 357 354 357 7 14 16 18 19 15 11 9 7 2 357 354 353 353 354 353 352 351 350 348 345 343 342 340 336 332 325 320 321 323 325 325 323 324 324 324 324 324 326 328 330 329 326 323 320 320 321 321 322 324 324 326 327 329 333 335 336 337 337 334 331 329 328 327 326 326 327 329 330 331 331 331 330
181 169 189 214 212 179 145 62 62 62 44 34 30 19 13 13 12 16 21 16 4 358 356 359 7 11 9 7 9 8 5 1 357 351 346 344 342 343 343 342 342 342 341 340 338 335 333 330 326 323 320 318 318 318 317 319 319 320 322 323 325 327 330 329 327 325 322 320 320 320 322 324 326 328 329 330 333 336 338 341 343 343 343 343 342 340 337 332 328 327 328 330 331 332 333 333 332
184 179 201 216 225 204 170 57 69 68 51 42 33 19 14 13 14 18 21 17 6 359 358 5 12 11 8 4 0 0 0 358 352 347 344 342 341 341 339 337 335 333 333 332 331 329 327 325 320 316 313 310 308 307 308 310 313 318 323 325 327 326 325 324 322 321 319 318 320 322 324 328 330 331 332 333 336 339 340 341 342 343 343 344 345 345 343 340 336 334 334 335 335 336 336 334 332
195 194 206 217 223 210 216 9 63 70 54 49 35 19 14 12 17 21 18 13 8 5 4 8 12 10 6 5 4 3 360 356 353 351 349 348 346 345 342 339 338 334 332 330 329 329 326 322 317 312 308 304 303 302 304 309 315 322 328 326 323 321 319 320 319 318 318 319 322 324 327 331 332 331 333 334 335 337 340 340 339 340 341 341 342 344 345 345 343 341 340 339 338 336 334 331 328
206 200 209 220 221 202 226 355 46 63 46 47 34 20 13 9 15 19 11 5 5 8 10 11 13 8 3 3 3 2 358 355 355 353 351 351 349 347 344 342 342 340 338 337 336 334 330 325 319 312 308 305 303 302 305 311 319 324 326 321 317 316 316 318 318 318 320 322 323 325 327 328 329 329 329 331 334 336 337 337 337 336 337 337 338 341 342 341 339 336 335 334 333 331 330 329 327
210 207 211 216 223 210 92 22 45 56 40 44 30 14 5 3 7 8 5 2 4 12 16 13 9 3 360 359 357 357 356 354 353 351 349 349 347 347 347 347 347 346 344 343 342 339 336 331 324 316 309 304 300 300 304 311 317 319 317 315 313 314 317 318 318 319 321 322 323 324 326 325 324 325 326 328 331 334 334 333 331 329 329 328 328 331 332 331 330 329 329 328 327 329 329 328 326
209 215 217 215 227 228 188 186 235 223 9 41 28 4 351 356 357 356 359 2 8 16 19 11 3 357 355 357 357 357 354 351 350 348 345 345 344 343 344 344 346 348 348 346 343 340 340 338 332 320 310 304 301 300 304 307 310 310 308 308 310 313 317 317 318 320 321 322 324 324 322 322 322 322 323 326 329 330 329 327 324 322 321 321 321 322 323 324 324 324 324 324 325 327 327 326 323
206 216 221 221 228 224 207 227 256 247 56 49 32 356 336 343 346 349 356 3 10 15 16 9 2 356 353 355 356 353 351 352 352 350 351 352 351 346 341 336 334 336 340 340 338 340 343 345 342 332 319 311 306 303 304 305 305 304 303 304 308 312 314 315 318 320 322 322 322 321 321 321 322 322 323 324 326 326 325 323 321 319 319 319 319 319 319 319 319 319 320 321 322 324 324 323 321
201 207 217 225 230 225 217 232 265 32 83 74 28 348 329 332 335 346 357 5 9 9 8 7 5 359 354 351 352 353 354 358 359 2 5 5 3 358 348 337 330 325 320 318 325 336 342 344 345 342 332 320 313 308 305 305 303 302 302 304 308 311 313 315 319 320 320 320 320 321 322 322 321 322 323 323 324 325 325 324 323 320 319 320 319 318 318 317 316 316 317 319 321 323 322 321 319
196 203 213 220 224 227 225 227 244 10 53 58 0 344 336 334 332 348 3 8 7 5 5 8 7 1 354 349 352 357 0 4 8 13 14 10 8 6 360 349 337 325 309 300 310 328 335 338 340 339 336 327 319 313 309 308 307 306 306 308 311 311 311 313 315 316 316 319 321 321 321 322 322 323 323 324 325 328 328 327 325 322 319 319 319 318 319 317 316 315 317 320 320 320 320 318 317
193 202 210 214 216 225 231 226 225 251 261 269 318 333 335 335 337 355 8 6 2 5 11 12 7 360 352 349 353 359 5 12 15 13 9 6 5 2 360 355 345 331 310 298 304 313 319 329 334 332 330 327 323 319 315 313 312 312 310 310 311 309 308 309 310 312 316 317 318 320 322 323 324 325 326 327 328 330 332 330 327 323 319 317 316 317 318 317 316 316 317 318 317 316 316 316 315
196 202 206 209 209 216 225 220 218 223 228 266 307 323 320 335 352 360 4 357 355 5 12 10 3 356 350 348 351 360 9 16 15 7 3 2 359 353 349 348 343 336 322 302 295 294 302 321 331 330 326 322 320 320 318 316 314 313 311 309 308 306 306 307 307 310 314 315 317 321 324 326 326 327 328 328 329 330 331 330 327 323 319 316 314 314 315 315 315 316 316 316 315 314 315 315 315
201 205 206 210 212 217 219 211 209 216 235 278 293 305 310 344 358 355 352 346 347 357 3 360 351 344 345 345 351 5 14 14 9 6 3 357 352 347 342 341 342 339 334 320 303 292 295 313 327 330 328 325 321 317 316 316 315 312 309 306 304 303 304 305 307 310 312 315 319 322 324 324 325 325 324 324 326 327 329 329 327 324 320 317 316 314 314 315 316 317 316 315 315 315 315 315 314
203 205 204 210 215 216 211 209 214 222 241 269 273 290 317 345 352 346 341 341 344 348 350 346 335 329 337 343 356 11 14 8 5 7 3 355 354 353 346 343 355 1 359 351 333 312 300 301 310 320 325 324 322 317 313 313 314 311 308 304 302 303 306 308 309 312 315 317 318 318 318 317 317 318 319 320 321 323 326 328 327 324 321 320 318 316 315 317 317 316 315 314 313 313 313 311 310